• In Belarus
  • List of Countries
  • For 7 days
  • Water Temperature
  • Satellite Maps
  • Weather Map
  • Weather Widgets
  • user-avatar
    Login

    Hourly Weather Mauritius

    Today, 17 October, Wednesday

    Time Temperature Precipitation Wind Pressure Humidity
    00:00 +21°C° 0.1 mm 5 mps 726 mmHg 77%
    01:00 +21°C° 0.1 mm 5 mps 726 mmHg 77%
    02:00 +21°C° 0.1 mm 5 mps 726 mmHg 78%
    03:00 +21°C° 0.1 mm 5 mps 725 mmHg 79%
    04:00 +21°C° 0 mm 5 mps 725 mmHg 79%
    05:00 +21°C° 0 mm 5 mps 725 mmHg 79%
    06:00 +21°C° 0 mm 5 mps 725 mmHg 79%
    07:00 +21°C° 0 mm 5 mps 725 mmHg 79%
    08:00 +22°C° 0 mm 5 mps 725 mmHg 76%
    09:00 +23°C° 0 mm 5 mps 725 mmHg 72%
    10:00 +25°C° 0 mm 5 mps 725 mmHg 68%
    11:00 +25°C° 0 mm 5 mps 725 mmHg 68%
    12:00 +25°C° 0 mm 5 mps 725 mmHg 69%
    13:00 +25°C° 0 mm 5 mps 725 mmHg 69%
    14:00 +25°C° 0.2 mm 4 mps 725 mmHg 70%
    15:00 +25°C° 0.2 mm 4 mps 724 mmHg 71%
    16:00 +23°C° 0.2 mm 4 mps 724 mmHg 73%
    17:00 +23°C° 0.2 mm 4 mps 724 mmHg 75%
    18:00 +23°C° 0.2 mm 4 mps 724 mmHg 77%
    19:00 +22°C° 0.2 mm 4 mps 724 mmHg 79%
    20:00 +22°C° 0 mm 4 mps 725 mmHg 80%
    21:00 +22°C° 0 mm 4 mps 725 mmHg 81%
    22:00 +22°C° 0 mm 4 mps 725 mmHg 81%
    23:00 +22°C° 0 mm 4 mps 725 mmHg 82%

    Tomorrow, 18 October, Thursday

    Time Temperature Precipitation Wind Pressure Humidity
    00:00 +22°C° 0 mm 4 mps 725 mmHg 82%
    01:00 +22°C° 0 mm 4 mps 725 mmHg 83%
    02:00 +22°C° 0 mm 4 mps 724 mmHg 83%
    03:00 +22°C° 0 mm 4 mps 724 mmHg 83%
    04:00 +21°C° 0 mm 4 mps 724 mmHg 83%
    05:00 +22°C° 0 mm 4 mps 724 mmHg 82%
    06:00 +22°C° 0 mm 4 mps 724 mmHg 81%
    07:00 +22°C° 0 mm 4 mps 724 mmHg 80%
    08:00 +23°C° 0 mm 5 mps 725 mmHg 77%
    09:00 +25°C° 0 mm 5 mps 725 mmHg 73%
    10:00 +26°C° 0 mm 6 mps 725 mmHg 70%
    11:00 +26°C° 0 mm 6 mps 725 mmHg 69%
    12:00 +26°C° 0 mm 6 mps 724 mmHg 69%
    13:00 +26°C° 0 mm 6 mps 724 mmHg 68%
    14:00 +26°C° 0.1 mm 6 mps 724 mmHg 69%
    15:00 +26°C° 0.1 mm 6 mps 724 mmHg 69%
    16:00 +26°C° 0.1 mm 6 mps 723 mmHg 70%
    17:00 +25°C° 0.1 mm 5 mps 723 mmHg 73%
    18:00 +25°C° 0.1 mm 5 mps 724 mmHg 76%
    19:00 +23°C° 0.1 mm 5 mps 724 mmHg 79%
    20:00 +23°C° 0.1 mm 5 mps 724 mmHg 80%
    21:00 +23°C° 0.1 mm 5 mps 724 mmHg 81%
    22:00 +22°C° 0.1 mm 5 mps 725 mmHg 82%
    23:00 +22°C° 0.2 mm 5 mps 725 mmHg 82%

    Day after tomorrow, 19 October, Friday

    Time Temperature Precipitation Wind Pressure Humidity
    00:00 +22°C° 0.2 mm 5 mps 724 mmHg 83%
    01:00 +22°C° 0.2 mm 5 mps 724 mmHg 83%
    02:00 +22°C° 0.3 mm 5 mps 724 mmHg 84%
    03:00 +22°C° 0.3 mm 5 mps 724 mmHg 84%
    04:00 +22°C° 0.3 mm 5 mps 723 mmHg 84%
    05:00 +22°C° 0 mm 5 mps 724 mmHg 84%
    06:00 +22°C° 0 mm 6 mps 724 mmHg 83%
    07:00 +22°C° 0 mm 6 mps 724 mmHg 83%
    08:00 +23°C° 0 mm 6 mps 724 mmHg 79%
    09:00 +24°C° 0 mm 6 mps 724 mmHg 76%
    10:00 +26°C° 0 mm 6 mps 725 mmHg 72%
    11:00 +26°C° 0 mm 5 mps 725 mmHg 70%
    12:00 +26°C° 0 mm 5 mps 724 mmHg 69%
    13:00 +27°C° 0 mm 5 mps 724 mmHg 67%
    14:00 +27°C° 0.2 mm 5 mps 724 mmHg 68%
    15:00 +26°C° 0.2 mm 5 mps 724 mmHg 70%
    16:00 +26°C° 0.2 mm 5 mps 723 mmHg 71%
    17:00 +26°C° 0.3 mm 4 mps 724 mmHg 74%
    18:00 +25°C° 0.3 mm 4 mps 724 mmHg 77%
    19:00 +23°C° 0.3 mm 4 mps 724 mmHg 80%
    20:00 +23°C° 0.1 mm 4 mps 724 mmHg 81%
    21:00 +23°C° 0.1 mm 4 mps 725 mmHg 83%
    22:00 +23°C° 0.1 mm 4 mps 725 mmHg 84%
    23:00 +23°C° 0 mm 4 mps 725 mmHg 84%

    20 October, Saturday

    Time Temperature Precipitation Wind Pressure Humidity
    00:00 +23°C° 0 mm 4 mps 725 mmHg 85%
    01:00 +22°C° 0 mm 4 mps 724 mmHg 85%
    02:00 +22°C° 0 mm 4 mps 724 mmHg 86%
    03:00 +22°C° 0 mm 4 mps 724 mmHg 86%
    04:00 +22°C° 0 mm 4 mps 724 mmHg 87%
    05:00 +22°C° 0 mm 4 mps 724 mmHg 86%
    06:00 +22°C° 0 mm 4 mps 724 mmHg 85%
    07:00 +22°C° 0 mm 3 mps 725 mmHg 84%
    08:00 +24°C° 0 mm 3 mps 725 mmHg 80%
    09:00 +25°C° 0 mm 3 mps 725 mmHg 76%
    10:00 +26°C° 0 mm 3 mps 726 mmHg 73%
    11:00 +26°C° 0.1 mm 3 mps 725 mmHg 71%
    12:00 +26°C° 0.1 mm 3 mps 725 mmHg 69%
    13:00 +26°C° 0.1 mm 3 mps 725 mmHg 67%
    14:00 +26°C° 0.4 mm 3 mps 724 mmHg 68%
    15:00 +26°C° 0.4 mm 3 mps 724 mmHg 69%
    16:00 +26°C° 0.4 mm 3 mps 724 mmHg 70%
    17:00 +25°C° 0.4 mm 2 mps 724 mmHg 72%
    18:00 +25°C° 0.4 mm 2 mps 725 mmHg 75%
    19:00 +24°C° 0.4 mm 2 mps 725 mmHg 77%
    20:00 +24°C° 0.1 mm 2 mps 725 mmHg 80%
    21:00 +24°C° 0.1 mm 2 mps 726 mmHg 82%
    22:00 +24°C° 0.1 mm 2 mps 726 mmHg 84%
    23:00 +24°C° 0.1 mm 2 mps 725 mmHg 84%

    21 October, Sunday

    Time Temperature Precipitation Wind Pressure Humidity
    00:00 +24°C° 0.1 mm 3 mps 725 mmHg 85%
    01:00 +22°C° 0.1 mm 3 mps 725 mmHg 85%
    02:00 +22°C° 0 mm 3 mps 725 mmHg 86%
    03:00 +22°C° 0 mm 4 mps 724 mmHg 87%
    04:00 +22°C° 0 mm 4 mps 724 mmHg 88%
    05:00 +22°C° 0 mm 4 mps 724 mmHg 87%
    06:00 +22°C° 0 mm 4 mps 725 mmHg 86%
    07:00 +22°C° 0 mm 5 mps 725 mmHg 85%
    08:00 +23°C° 0 mm 5 mps 725 mmHg 81%
    09:00 +25°C° 0 mm 5 mps 725 mmHg 78%
    10:00 +26°C° 0 mm 5 mps 725 mmHg 74%
    11:00 +26°C° 0 mm 5 mps 725 mmHg 72%
    12:00 +27°C° 0 mm 5 mps 724 mmHg 71%
    13:00 +27°C° 0 mm 5 mps 724 mmHg 70%
    14:00 +27°C° 0 mm 5 mps 724 mmHg 70%
    15:00 +27°C° 0 mm 5 mps 723 mmHg 71%
    16:00 +26°C° 0 mm 5 mps 723 mmHg 71%
    17:00 +26°C° 0 mm 5 mps 723 mmHg 74%
    18:00 +25°C° 0 mm 5 mps 724 mmHg 77%
    19:00 +25°C° 0 mm 5 mps 724 mmHg 80%
    20:00 +25°C° 0 mm 5 mps 724 mmHg 82%
    21:00 +23°C° 0 mm 5 mps 725 mmHg 83%
    22:00 +23°C° 0 mm 5 mps 725 mmHg 85%
    23:00 +23°C° 0 mm 5 mps 724 mmHg 85%

    22 October, Monday

    Time Temperature Precipitation Wind Pressure Humidity
    00:00 +23°C° 0 mm 5 mps 724 mmHg 86%
    01:00 +23°C° 0 mm 6 mps 724 mmHg 86%
    02:00 +22°C° 0 mm 6 mps 723 mmHg 86%
    03:00 +22°C° 0 mm 6 mps 723 mmHg 85%
    04:00 +22°C° 0 mm 7 mps 723 mmHg 85%
    05:00 +23°C° 0 mm 7 mps 723 mmHg 85%
    06:00 +23°C° 0 mm 7 mps 724 mmHg 84%
    07:00 +23°C° 0 mm 7 mps 724 mmHg 84%
    08:00 +24°C° 0 mm 7 mps 724 mmHg 81%
    09:00 +24°C° 0 mm 7 mps 724 mmHg 77%
    10:00 +26°C° 0 mm 7 mps 724 mmHg 74%
    11:00 +26°C° 0 mm 7 mps 724 mmHg 73%
    12:00 +26°C° 0 mm 7 mps 723 mmHg 72%
    13:00 +27°C° 0 mm 7 mps 723 mmHg 71%
    14:00 +27°C° 0.1 mm 7 mps 723 mmHg 72%
    15:00 +26°C° 0.1 mm 6 mps 723 mmHg 72%
    16:00 +26°C° 0.1 mm 6 mps 723 mmHg 73%
    17:00 +26°C° 0.7 mm 6 mps 724 mmHg 75%
    18:00 +25°C° 0.7 mm 5 mps 724 mmHg 77%
    19:00 +23°C° 0.7 mm 5 mps 725 mmHg 79%
    20:00 +23°C° 1 mm 6 mps 725 mmHg 82%
    21:00 +22°C° 1 mm 6 mps 725 mmHg 86%
    22:00 +22°C° 1 mm 6 mps 726 mmHg 89%
    23:00 +21°C° 0.3 mm 7 mps 726 mmHg 87%
    Show more